Location: *
(46.0770°N, 1.6444°E)
Time: 11:10:40
(UTC+00:00)

MOS 1 - Pass Details

Date: 16 September 2019
Orbit: 878 x 892 km, 99.2° (Epoch: 11 October)

Event Time Altitude Azimuth Distance (km) Brightness Sun altitude
Rises 18:37:07 0° 148° (SSE) 3,491 7.0 -6.6°
Reaches altitude 10° 18:39:33 10° 144° (SE) 2,554 6.3 -7.0°
Maximum altitude 18:45:04 54° 69° (ENE) 1,075 4.5 -7.9°
Drops below altitude 10° 18:50:37 10° 353° (N) 2,565 7.0 -8.9°
Sets 18:53:03 0° 349° (N) 3,507 7.8 -9.3°
